| time (UTC) | temp F | wind direction | speed knots | gust knots | rain 1hr in | rain 24hr in | rain mn in | humidity % | barometer mb |
| 20260510044804 | 53 | 321 | 0.0 | 0.0 | 0.04 | 0.55 | 0.04 | 97 | 1010.7 |
| 20260510044305 | 53 | 321 | 0.0 | 0.0 | 0.03 | 0.54 | 0.03 | 97 | 1010.6 |
| 20260510043804 | 53 | 321 | 0.0 | 0.0 | 0.03 | 0.54 | 0.03 | 97 | 1010.4 |
| 20260510043305 | 53 | 321 | 0.0 | 0.0 | 0.04 | 0.54 | 0.03 | 97 | 1010.3 |
| 20260510042804 | 53 | 321 | 0.0 | 0.0 | 0.05 | 0.53 | 0.02 | 97 | 1010.4 |
| 20260510042306 | 53 | 321 | 0.0 | 0.9 | 0.04 | 0.52 | 0.01 | 97 | 1010.5 |
| 20260510041304 | 53 | 328 | 0.9 | 2.6 | 0.03 | 0.51 | 0.00 | 97 | 1010.0 |
| 20260510040805 | 53 | 254 | 0.0 | 0.9 | 0.03 | 0.51 | 0.00 | 97 | 1009.5 |
| 20260510040304 | 53 | 194 | 0.9 | 1.7 | 0.03 | 0.51 | 0.00 | 96 | 1009.3 |
| 20260510035804 | 53 | 197 | 0.9 | 2.6 | 0.03 | 0.51 | 0.51 | 96 | 1009.1 |
| 20260510034804 | 53 | 141 | 0.9 | 2.6 | 0.03 | 0.52 | 0.51 | 96 | 1009.1 |
| 20260510034304 | 53 | 196 | 0.9 | 2.6 | 0.03 | 0.52 | 0.51 | 96 | 1009.2 |
| 20260510033804 | 53 | 196 | 0.9 | 2.6 | 0.03 | 0.52 | 0.51 | 96 | 1009.3 |
| 20260510033305 | 53 | 199 | 0.0 | 1.7 | 0.03 | 0.51 | 0.50 | 96 | 1009.3 |
| 20260510032805 | 53 | 193 | 0.0 | 0.9 | 0.03 | 0.49 | 0.48 | 96 | 1009.5 |
| 20260510032306 | 53 | 221 | 0.0 | 0.9 | 0.06 | 0.50 | 0.48 | 96 | 1009.6 |
| 20260510031304 | 53 | 214 | 0.0 | 0.9 | 0.11 | 0.50 | 0.48 | 96 | 1009.6 |
| 20260510030805 | 53 | 219 | 0.0 | 0.9 | 0.12 | 0.50 | 0.48 | 96 | 1009.6 |
| 20260510030305 | 53 | 208 | 0.0 | 0.9 | 0.13 | 0.50 | 0.48 | 96 | 1009.6 |
| 20260510025804 | 53 | 204 | 0.0 | 0.9 | 0.15 | 0.50 | 0.48 | 95 | 1009.6 |
| 20260510024804 | 53 | 174 | 0.9 | 2.6 | 0.18 | 0.51 | 0.48 | 95 | 1009.5 |
| 20260510024304 | 53 | 203 | 0.0 | 2.6 | 0.19 | 0.51 | 0.48 | 95 | 1009.7 |
| 20260510023804 | 53 | 210 | 0.9 | 2.6 | 0.21 | 0.51 | 0.48 | 95 | 1009.7 |
| 20260510022805 | 53 | 174 | 0.9 | 2.6 | 0.33 | 0.49 | 0.45 | 95 | 1010.4 |
| 20260510021805 | 53 | 195 | 0.0 | 0.9 | 0.27 | 0.44 | 0.39 | 94 | 1010.6 |
| 20260510021304 | 53 | 96 | 0.0 | 0.0 | 0.25 | 0.42 | 0.37 | 94 | 1010.5 |
| 20260510020806 | 53 | 96 | 0.0 | 0.9 | 0.24 | 0.41 | 0.36 | 93 | 1010.6 |
| 20260510020305 | 54 | 96 | 0.0 | 0.9 | 0.23 | 0.41 | 0.35 | 93 | 1010.4 |
| 20260510015805 | 54 | 335 | 0.9 | 2.6 | 0.21 | 0.39 | 0.33 | 93 | 1010.7 |
| 20260510014805 | 54 | 322 | 0.0 | 1.7 | 0.18 | 0.36 | 0.30 | 92 | 1010.6 |
| 20260510014305 | 54 | 11 | 0.9 | 4.3 | 0.17 | 0.35 | 0.29 | 91 | 1010.5 |
| 20260510013805 | 55 | 356 | 1.7 | 5.2 | 0.15 | 0.33 | 0.27 | 89 | 1010.5 |
| 20260510013304 | 56 | 291 | 3.5 | 12.2 | 0.08 | 0.26 | 0.20 | 86 | 1010.4 |
| 20260510012805 | 58 | 355 | 4.3 | 8.7 | 0.00 | 0.18 | 0.12 | 81 | 1009.7 |
| 20260510012307 | 60 | 338 | 5.2 | 11.3 | 0.00 | 0.19 | 0.12 | 76 | 1009.6 |
| 20260510011805 | 62 | 323 | 4.3 | 11.3 | 0.00 | 0.19 | 0.12 | 72 | 1009.0 |
| 20260510011305 | 62 | 246 | 0.9 | 5.2 | 0.00 | 0.19 | 0.12 | 70 | 1007.6 |
| 20260510010805 | 62 | 243 | 0.9 | 4.3 | 0.00 | 0.19 | 0.12 | 70 | 1007.3 |
| 20260510010304 | 62 | 233 | 1.7 | 2.6 | 0.00 | 0.19 | 0.12 | 70 | 1007.4 |
| 20260510005306 | 62 | 221 | 1.7 | 6.1 | 0.00 | 0.19 | 0.12 | 70 | 1007.5 |
| 20260510004805 | 62 | 209 | 0.9 | 2.6 | 0.00 | 0.19 | 0.12 | 70 | 1007.3 |
| 20260510004304 | 62 | 215 | 0.0 | 2.6 | 0.00 | 0.19 | 0.12 | 70 | 1007.3 |
| 20260510003305 | 62 | 216 | 0.9 | 4.3 | 0.00 | 0.19 | 0.12 | 69 | 1007.2 |
| 20260510002805 | 63 | 225 | 1.7 | 5.2 | 0.00 | 0.19 | 0.12 | 68 | 1007.2 |
| 20260510002307 | 63 | 198 | 0.0 | 2.6 | 0.00 | 0.19 | 0.12 | 67 | 1007.1 |
| 20260510001805 | 63 | 220 | 1.7 | 6.1 | 0.00 | 0.19 | 0.12 | 66 | 1007.1 |
| 20260510001305 | 63 | 243 | 3.5 | 8.7 | 0.00 | 0.19 | 0.12 | 66 | 1007.0 |
| 20260510000805 | 63 | 241 | 1.7 | 6.1 | 0.00 | 0.19 | 0.12 | 66 | 1006.9 |
| 20260509235805 | 64 | 254 | 2.6 | 8.7 | 0.00 | 0.19 | 0.12 | 66 | 1006.9 |
| 20260509235307 | 64 | 232 | 4.3 | 10.4 | 0.00 | 0.19 | 0.12 | 65 | 1006.9 |
| 20260509234805 | 64 | 209 | 0.9 | 5.2 | 0.00 | 0.19 | 0.12 | 66 | 1006.8 |
| 20260509233804 | 65 | 238 | 1.7 | 6.1 | 0.00 | 0.19 | 0.12 | 65 | 1006.6 |
| 20260509233304 | 65 | 169 | 1.7 | 7.8 | 0.00 | 0.19 | 0.12 | 63 | 1006.5 |
| 20260509232805 | 66 | 223 | 1.7 | 8.7 | 0.00 | 0.19 | 0.12 | 63 | 1006.7 |
| 20260509232306 | 66 | 252 | 4.3 | 8.7 | 0.00 | 0.19 | 0.12 | 62 | 1006.6 |
| 20260509231805 | 66 | 226 | 2.6 | 11.3 | 0.00 | 0.19 | 0.12 | 62 | 1006.6 |
| 20260509231304 | 66 | 266 | 1.7 | 10.4 | 0.00 | 0.19 | 0.12 | 62 | 1006.7 |
| 20260509230804 | 67 | 219 | 4.3 | 13.0 | 0.00 | 0.19 | 0.12 | 62 | 1006.7 |
| 20260509230304 | 67 | 269 | 4.3 | 8.7 | 0.00 | 0.19 | 0.12 | 61 | 1006.7 |
| 20260509225805 | 67 | 269 | 2.6 | 8.7 | 0.00 | 0.19 | 0.12 | 62 | 1006.6 |
| 20260509225306 | 67 | 235 | 5.2 | 10.4 | 0.00 | 0.19 | 0.12 | 61 | 1006.6 |
| 20260509224304 | 67 | 268 | 3.5 | 10.4 | 0.00 | 0.19 | 0.12 | 61 | 1006.5 |
| 20260509223805 | 67 | 242 | 3.5 | 8.7 | 0.00 | 0.19 | 0.12 | 61 | 1006.5 |
| 20260509223305 | 67 | 218 | 4.3 | 13.9 | 0.00 | 0.19 | 0.12 | 61 | 1006.3 |
| 20260509221805 | 67 | 236 | 5.2 | 11.3 | 0.00 | 0.19 | 0.12 | 61 | 1006.4 |
| 20260509221304 | 68 | 240 | 4.3 | 10.4 | 0.00 | 0.20 | 0.12 | 61 | 1006.4 |
| 20260509220804 | 68 | 229 | 2.6 | 6.1 | 0.00 | 0.20 | 0.12 | 62 | 1006.5 |
| 20260509220305 | 67 | 250 | 2.6 | 10.4 | 0.00 | 0.20 | 0.12 | 64 | 1006.5 |
| 20260509215804 | 67 | 215 | 3.5 | 8.7 | 0.00 | 0.20 | 0.12 | 61 | 1006.5 |
| 20260509215306 | 67 | 229 | 2.6 | 11.3 | 0.00 | 0.20 | 0.12 | 64 | 1006.5 |
| 20260509214804 | 67 | 215 | 4.3 | 11.3 | 0.00 | 0.20 | 0.12 | 64 | 1006.5 |
| 20260509214306 | 67 | 214 | 2.6 | 7.8 | 0.00 | 0.21 | 0.12 | 64 | 1006.5 |
| 20260509213808 | 67 | 234 | 5.2 | 8.7 | 0.00 | 0.21 | 0.12 | 65 | 1006.7 |
| 20260509212805 | 66 | 244 | 3.5 | 7.8 | 0.00 | 0.22 | 0.12 | 64 | 1006.7 |
| 20260509212306 | 66 | 227 | 2.6 | 7.8 | 0.00 | 0.23 | 0.12 | 63 | 1006.7 |
| 20260509211304 | 66 | 217 | 2.6 | 8.7 | 0.00 | 0.25 | 0.12 | 65 | 1006.8 |
| 20260509210304 | 66 | 245 | 3.5 | 8.7 | 0.00 | 0.25 | 0.12 | 66 | 1007.1 |
| 20260509205804 | 65 | 228 | 1.7 | 8.7 | 0.00 | 0.25 | 0.12 | 67 | 1007.1 |
| 20260509204804 | 65 | 238 | 3.5 | 7.8 | 0.00 | 0.25 | 0.12 | 66 | 1007.3 |
| 20260509204304 | 66 | 269 | 4.3 | 10.4 | 0.00 | 0.26 | 0.12 | 66 | 1007.3 |
| 20260509203806 | 66 | 217 | 2.6 | 7.0 | 0.00 | 0.26 | 0.12 | 69 | 1007.2 |
| 20260509203305 | 65 | 241 | 2.6 | 10.4 | 0.00 | 0.26 | 0.12 | 67 | 1007.2 |
| 20260509202804 | 66 | 213 | 2.6 | 7.0 | 0.00 | 0.26 | 0.12 | 69 | 1007.3 |
| 20260509202306 | 65 | 253 | 6.1 | 12.2 | 0.00 | 0.26 | 0.12 | 67 | 1007.4 |
| 20260509201804 | 65 | 230 | 1.7 | 11.3 | 0.00 | 0.27 | 0.12 | 68 | 1007.5 |
| 20260509201304 | 66 | 217 | 4.3 | 11.3 | 0.00 | 0.27 | 0.12 | 68 | 1007.4 |
| 20260509200804 | 65 | 263 | 1.7 | 7.8 | 0.00 | 0.28 | 0.12 | 69 | 1007.7 |
| 20260509195306 | 64 | 269 | 3.5 | 8.7 | 0.00 | 0.28 | 0.12 | 71 | 1008.1 |
| 20260509194805 | 65 | 206 | 5.2 | 10.4 | 0.00 | 0.28 | 0.12 | 70 | 1008.1 |
| 20260509194304 | 64 | 236 | 3.5 | 8.7 | 0.00 | 0.28 | 0.12 | 70 | 1008.1 |
| 20260509193805 | 64 | 239 | 4.3 | 8.7 | 0.00 | 0.28 | 0.12 | 72 | 1008.0 |
| 20260509193304 | 64 | 237 | 3.5 | 10.4 | 0.00 | 0.28 | 0.12 | 71 | 1008.0 |
| 20260509192806 | 65 | 265 | 3.5 | 10.4 | 0.00 | 0.28 | 0.12 | 72 | 1008.1 |
| 20260509192306 | 64 | 238 | 6.1 | 12.2 | 0.00 | 0.28 | 0.12 | 71 | 1008.1 |
| 20260509191804 | 65 | 260 | 5.2 | 10.4 | 0.00 | 0.28 | 0.12 | 70 | 1008.3 |
| 20260509191304 | 64 | 261 | 5.2 | 10.4 | 0.00 | 0.28 | 0.12 | 72 | 1008.3 |
| 20260509190805 | 64 | 228 | 4.3 | 8.7 | 0.00 | 0.28 | 0.12 | 71 | 1008.3 |
| 20260509190304 | 64 | 229 | 5.2 | 11.3 | 0.00 | 0.28 | 0.12 | 73 | 1008.3 |
| 20260509185804 | 64 | 213 | 5.2 | 10.4 | 0.00 | 0.28 | 0.12 | 74 | 1008.3 |
| 20260509185306 | 64 | 222 | 5.2 | 13.0 | 0.00 | 0.28 | 0.12 | 74 | 1008.3 |
| 20260509184804 | 63 | 228 | 5.2 | 10.4 | 0.00 | 0.28 | 0.12 | 75 | 1008.3 |
| 20260509184305 | 63 | 206 | 4.3 | 10.4 | 0.00 | 0.28 | 0.12 | 76 | 1008.4 |
| 20260509183804 | 63 | 249 | 6.1 | 12.2 | 0.00 | 0.28 | 0.12 | 74 | 1008.5 |
| 20260509183304 | 63 | 249 | 4.3 | 13.0 | 0.00 | 0.28 | 0.12 | 76 | 1008.4 |
| 20260509182307 | 62 | 230 | 2.6 | 7.8 | 0.00 | 0.28 | 0.12 | 78 | 1008.5 |
| 20260509181304 | 62 | 271 | 5.2 | 14.8 | 0.00 | 0.28 | 0.12 | 80 | 1008.7 |
| 20260509180804 | 61 | 253 | 2.6 | 7.8 | 0.00 | 0.28 | 0.12 | 82 | 1008.7 |
| 20260509180305 | 61 | 213 | 0.9 | 6.1 | 0.00 | 0.28 | 0.12 | 83 | 1008.8 |
| 20260509175306 | 60 | 248 | 0.9 | 5.2 | 0.00 | 0.28 | 0.12 | 85 | 1008.8 |
| 20260509174804 | 60 | 273 | 0.9 | 5.2 | 0.00 | 0.28 | 0.12 | 85 | 1008.7 |
| 20260509173805 | 60 | 237 | 1.7 | 5.2 | 0.00 | 0.28 | 0.12 | 85 | 1008.8 |
| 20260509172804 | 59 | 191 | 1.7 | 5.2 | 0.00 | 0.28 | 0.12 | 88 | 1008.8 |
| 20260509172306 | 58 | 234 | 0.9 | 5.2 | 0.00 | 0.28 | 0.12 | 90 | 1008.9 |
| 20260509171304 | 57 | 293 | 0.9 | 7.0 | 0.00 | 0.28 | 0.12 | 92 | 1009.0 |
| 20260509170806 | 57 | 283 | 0.9 | 4.3 | 0.00 | 0.28 | 0.12 | 91 | 1009.0 |
| 20260509170305 | 56 | 282 | 0.0 | 0.9 | 0.00 | 0.28 | 0.12 | 91 | 1008.9 |
| 20260509165804 | 56 | 266 | 0.9 | 2.6 | 0.00 | 0.28 | 0.12 | 91 | 1009.0 |
| 20260509165306 | 56 | 234 | 1.7 | 4.3 | 0.00 | 0.28 | 0.12 | 92 | 1009.0 |
| 20260509164804 | 56 | 233 | 1.7 | 2.6 | 0.00 | 0.28 | 0.12 | 92 | 1008.9 |
| 20260509164304 | 56 | 240 | 0.9 | 2.6 | 0.00 | 0.28 | 0.12 | 92 | 1009.0 |
| 20260509163804 | 56 | 209 | 0.9 | 2.6 | 0.00 | 0.28 | 0.12 | 93 | 1009.0 |
| 20260509163304 | 56 | 247 | 1.7 | 7.0 | 0.00 | 0.28 | 0.12 | 94 | 1009.0 |
| 20260509162804 | 56 | 228 | 1.7 | 2.6 | 0.00 | 0.28 | 0.12 | 95 | 1009.0 |
| 20260509162307 | 55 | 222 | 0.9 | 2.6 | 0.00 | 0.28 | 0.12 | 95 | 1009.1 |
| 20260509161805 | 54 | 224 | 1.7 | 6.1 | 0.00 | 0.28 | 0.12 | 95 | 1009.1 |
| 20260509160804 | 54 | 250 | 2.6 | 7.0 | 0.01 | 0.28 | 0.12 | 96 | 1009.0 |
| 20260509160304 | 54 | 231 | 1.7 | 5.2 | 0.01 | 0.28 | 0.12 | 96 | 1008.9 |
| 20260509155804 | 54 | 325 | 0.9 | 2.6 | 0.01 | 0.28 | 0.12 | 97 | 1009.0 |
| 20260509153805 | 53 | 238 | 0.0 | 2.6 | 0.04 | 0.28 | 0.12 | 97 | 1008.9 |
| 20260509153304 | 53 | 208 | 0.9 | 4.3 | 0.04 | 0.28 | 0.12 | 97 | 1008.9 |
| 20260509152806 | 52 | 216 | 0.9 | 7.0 | 0.04 | 0.28 | 0.12 | 97 | 1008.9 |
| 20260509152306 | 52 | 207 | 0.9 | 2.6 | 0.04 | 0.28 | 0.12 | 97 | 1008.9 |
| 20260509151805 | 52 | 231 | 0.0 | 6.1 | 0.04 | 0.28 | 0.12 | 97 | 1008.9 |
| 20260509151305 | 52 | 238 | 1.7 | 2.6 | 0.04 | 0.28 | 0.12 | 97 | 1008.9 |
| 20260509150804 | 52 | 203 | 1.7 | 4.3 | 0.03 | 0.27 | 0.11 | 97 | 1008.9 |
| 20260509150305 | 52 | 205 | 0.9 | 2.6 | 0.03 | 0.27 | 0.11 | 97 | 1008.9 |
| 20260509145804 | 52 | 250 | 0.9 | 4.3 | 0.03 | 0.27 | 0.11 | 97 | 1008.9 |
| 20260509145306 | 52 | 201 | 0.9 | 2.6 | 0.03 | 0.27 | 0.11 | 97 | 1008.9 |
| 20260509144804 | 52 | 246 | 0.9 | 1.7 | 0.02 | 0.26 | 0.10 | 97 | 1009.0 |
| 20260509144305 | 52 | 222 | 0.9 | 2.6 | 0.03 | 0.26 | 0.10 | 97 | 1008.9 |
| 20260509143807 | 52 | 266 | 0.9 | 2.6 | 0.01 | 0.24 | 0.08 | 97 | 1008.9 |
| 20260509143304 | 52 | 266 | 0.9 | 2.6 | 0.01 | 0.24 | 0.08 | 97 | 1009.0 |
| 20260509142804 | 51 | 235 | 0.0 | 2.6 | 0.02 | 0.24 | 0.08 | 97 | 1008.9 |
| 20260509142307 | 51 | 230 | 1.7 | 5.2 | 0.02 | 0.24 | 0.08 | 97 | 1008.9 |
| 20260509141804 | 51 | 277 | 0.9 | 6.1 | 0.02 | 0.24 | 0.08 | 97 | 1009.0 |
| 20260509141304 | 51 | 227 | 2.6 | 4.3 | 0.02 | 0.24 | 0.08 | 97 | 1009.0 |
| 20260509140805 | 51 | 248 | 0.9 | 5.2 | 0.03 | 0.24 | 0.08 | 97 | 1008.9 |
| 20260509140304 | 51 | 249 | 2.6 | 5.2 | 0.03 | 0.24 | 0.08 | 97 | 1009.0 |
| 20260509135306 | 51 | 222 | 1.7 | 5.2 | 0.03 | 0.24 | 0.08 | 97 | 1009.0 |
| 20260509134804 | 51 | 220 | 2.6 | 7.0 | 0.03 | 0.24 | 0.08 | 97 | 1009.1 |
| 20260509133804 | 51 | 230 | 1.7 | 5.2 | 0.03 | 0.23 | 0.07 | 97 | 1009.1 |
| 20260509133305 | 51 | 238 | 0.9 | 4.3 | 0.03 | 0.23 | 0.07 | 97 | 1009.1 |
| 20260509132805 | 51 | 222 | 1.7 | 6.1 | 0.02 | 0.22 | 0.06 | 97 | 1009.1 |
| 20260509131804 | 51 | 192 | 2.6 | 6.1 | 0.02 | 0.22 | 0.06 | 97 | 1009.1 |
| 20260509131307 | 51 | 203 | 0.9 | 2.6 | 0.02 | 0.22 | 0.06 | 97 | 1009.1 |
| 20260509130804 | 51 | 194 | 0.9 | 6.1 | 0.01 | 0.21 | 0.05 | 97 | 1009.1 |
| 20260509125308 | 51 | 219 | 1.7 | 2.6 | 0.01 | 0.21 | 0.05 | 97 | 1009.0 |
| 20260509124804 | 51 | 215 | 1.7 | 2.6 | 0.02 | 0.21 | 0.05 | 97 | 1009.1 |
| 20260509124304 | 50 | 207 | 0.9 | 2.6 | 0.02 | 0.21 | 0.05 | 97 | 1009.2 |
| 20260509123804 | 50 | 240 | 1.7 | 6.1 | 0.01 | 0.20 | 0.04 | 98 | 1009.2 |
| 20260509123304 | 50 | 252 | 0.9 | 5.2 | 0.01 | 0.20 | 0.04 | 98 | 1009.2 |
| 20260509122805 | 50 | 213 | 0.0 | 2.6 | 0.01 | 0.20 | 0.04 | 98 | 1009.3 |
| 20260509122306 | 50 | 236 | 0.9 | 2.6 | 0.01 | 0.20 | 0.04 | 98 | 1009.2 |
| 20260509121305 | 50 | 258 | 0.0 | 0.9 | 0.01 | 0.20 | 0.04 | 98 | 1009.2 |
| 20260509120804 | 49 | 231 | 0.9 | 1.7 | 0.01 | 0.20 | 0.04 | 98 | 1009.4 |
| 20260509120304 | 49 | 221 | 0.9 | 2.6 | 0.01 | 0.20 | 0.04 | 98 | 1009.2 |
| 20260509115804 | 49 | 224 | 0.0 | 2.6 | 0.01 | 0.20 | 0.04 | 98 | 1009.3 |
| 20260509115307 | 49 | 198 | 0.0 | 0.0 | 0.01 | 0.20 | 0.04 | 98 | 1009.3 |
| 20260509114805 | 49 | 185 | 0.0 | 0.9 | 0.00 | 0.19 | 0.03 | 98 | 1009.4 |
| 20260509113804 | 49 | 146 | 0.0 | 0.0 | 0.00 | 0.19 | 0.03 | 98 | 1009.4 |
| 20260509113304 | 48 | 146 | 0.0 | 0.0 | 0.00 | 0.19 | 0.03 | 98 | 1009.4 |
| 20260509112805 | 48 | 146 | 0.0 | 0.0 | 0.00 | 0.19 | 0.03 | 97 | 1009.4 |
| 20260509112307 | 48 | 146 | 0.0 | 0.0 | 0.00 | 0.19 | 0.03 | 98 | 1009.4 |
| 20260509111804 | 48 | 146 | 0.0 | 0.0 | 0.00 | 0.19 | 0.03 | 97 | 1009.4 |
| 20260509111304 | 48 | 146 | 0.0 | 0.0 | 0.00 | 0.19 | 0.03 | 97 | 1009.3 |
| 20260509110805 | 48 | 146 | 0.0 | 0.0 | 0.00 | 0.19 | 0.03 | 97 | 1009.3 |
| 20260509110305 | 48 | 146 | 0.0 | 0.0 | 0.00 | 0.19 | 0.03 | 97 | 1009.3 |
| 20260509105306 | 48 | 146 | 0.0 | 0.9 | 0.00 | 0.19 | 0.03 | 97 | 1009.2 |
| 20260509104805 | 48 | 146 | 0.0 | 0.0 | 0.00 | 0.19 | 0.03 | 97 | 1009.2 |
| 20260509104305 | 48 | 146 | 0.0 | 0.0 | 0.00 | 0.19 | 0.03 | 97 | 1009.2 |
| 20260509103804 | 48 | 146 | 0.0 | 0.0 | 0.00 | 0.19 | 0.03 | 97 | 1009.1 |
| 20260509103304 | 48 | 146 | 0.0 | 0.9 | 0.00 | 0.19 | 0.03 | 97 | 1009.1 |
| 20260509102805 | 48 | 146 | 0.0 | 0.0 | 0.00 | 0.19 | 0.03 | 97 | 1009.2 |
| 20260509102306 | 48 | 146 | 0.0 | 0.0 | 0.00 | 0.19 | 0.03 | 97 | 1009.1 |
| 20260509101805 | 48 | 146 | 0.0 | 0.0 | 0.00 | 0.19 | 0.03 | 97 | 1009.1 |
| 20260509101305 | 48 | 146 | 0.0 | 0.0 | 0.00 | 0.19 | 0.03 | 97 | 1009.1 |
| 20260509100804 | 48 | 146 | 0.0 | 0.9 | 0.00 | 0.19 | 0.03 | 97 | 1009.1 |
| 20260509100304 | 48 | 146 | 0.0 | 0.0 | 0.00 | 0.19 | 0.03 | 97 | 1009.2 |
| 20260509095804 | 48 | 146 | 0.0 | 0.0 | 0.00 | 0.19 | 0.03 | 97 | 1009.4 |
| 20260509095306 | 48 | 146 | 0.0 | 0.0 | 0.00 | 0.19 | 0.03 | 97 | 1009.6 |
| 20260509094804 | 48 | 146 | 0.0 | 0.0 | 0.01 | 0.19 | 0.03 | 97 | 1009.5 |
| 20260509094304 | 48 | 146 | 0.0 | 0.0 | 0.01 | 0.19 | 0.03 | 97 | 1009.5 |
| 20260509092804 | 48 | 173 | 0.0 | 0.0 | 0.01 | 0.19 | 0.03 | 97 | 1009.4 |
| 20260509092306 | 47 | 191 | 0.0 | 0.0 | 0.01 | 0.19 | 0.03 | 97 | 1009.6 |
| 20260509091804 | 48 | 191 | 0.0 | 0.0 | 0.01 | 0.19 | 0.03 | 97 | 1009.7 |
| 20260509091305 | 48 | 191 | 0.0 | 0.0 | 0.01 | 0.19 | 0.03 | 97 | 1009.6 |
| 20260509090805 | 48 | 191 | 0.0 | 0.0 | 0.02 | 0.19 | 0.03 | 97 | 1009.7 |
| 20260509090304 | 48 | 191 | 0.0 | 0.0 | 0.02 | 0.19 | 0.03 | 97 | 1009.8 |
| 20260509085806 | 47 | 191 | 0.0 | 0.0 | 0.02 | 0.19 | 0.03 | 97 | 1009.9 |
| 20260509084805 | 48 | 191 | 0.0 | 0.0 | 0.01 | 0.18 | 0.02 | 97 | 1010.0 |
| 20260509084305 | 48 | 191 | 0.0 | 0.0 | 0.01 | 0.18 | 0.02 | 97 | 1010.0 |
| 20260509083805 | 48 | 191 | 0.0 | 0.0 | 0.01 | 0.18 | 0.02 | 97 | 1010.0 |
| 20260509083305 | 48 | 191 | 0.0 | 0.0 | 0.01 | 0.18 | 0.02 | 97 | 1010.0 |
| 20260509082805 | 48 | 191 | 0.0 | 0.0 | 0.01 | 0.18 | 0.02 | 97 | 1010.1 |
| 20260509081805 | 48 | 191 | 0.0 | 0.0 | 0.02 | 0.18 | 0.02 | 97 | 1010.1 |
| 20260509081305 | 48 | 191 | 0.0 | 0.0 | 0.02 | 0.18 | 0.02 | 97 | 1010.1 |
| 20260509080805 | 48 | 191 | 0.0 | 0.0 | 0.01 | 0.17 | 0.01 | 97 | 1010.1 |
| 20260509080304 | 48 | 191 | 0.0 | 0.0 | 0.01 | 0.17 | 0.01 | 96 | 1010.3 |
| 20260509075804 | 47 | 120 | 0.0 | 0.9 | 0.01 | 0.17 | 0.01 | 96 | 1010.0 |
| 20260509075309 | 47 | 120 | 0.0 | 0.9 | 0.01 | 0.17 | 0.01 | 96 | 1009.9 |
| 20260509074304 | 47 | 120 | 0.0 | 0.9 | 0.01 | 0.17 | 0.01 | 96 | 1010.0 |
| 20260509073805 | 47 | 120 | 0.0 | 0.0 | 0.01 | 0.17 | 0.01 | 96 | 1010.2 |
| 20260509073304 | 48 | 120 | 0.0 | 0.9 | 0.01 | 0.17 | 0.01 | 96 | 1010.2 |
| 20260509072804 | 48 | 120 | 0.0 | 0.9 | 0.01 | 0.17 | 0.01 | 96 | 1010.2 |
| 20260509072306 | 48 | 120 | 0.0 | 2.6 | 0.01 | 0.17 | 0.01 | 96 | 1010.1 |
| 20260509071804 | 47 | 156 | 0.0 | 0.9 | 0.00 | 0.16 | 0.00 | 96 | 1010.1 |
| 20260509071304 | 47 | 125 | 0.0 | 0.9 | 0.00 | 0.16 | 0.00 | 96 | 1010.1 |
| 20260509070804 | 47 | 120 | 0.0 | 2.6 | 0.00 | 0.16 | 0.00 | 96 | 1010.0 |
| 20260509070305 | 47 | 128 | 0.0 | 1.7 | 0.00 | 0.16 | 0.00 | 96 | 1009.9 |
| 20260509065306 | 48 | 113 | 0.9 | 1.7 | 0.00 | 0.16 | 0.00 | 96 | 1010.0 |
| 20260509064804 | 48 | 117 | 0.0 | 0.9 | 0.00 | 0.16 | 0.00 | 96 | 1010.0 |
| 20260509064304 | 48 | 116 | 0.0 | 1.7 | 0.00 | 0.16 | 0.00 | 96 | 1010.1 |
| 20260509063804 | 48 | 130 | 0.0 | 2.6 | 0.00 | 0.16 | 0.00 | 96 | 1010.1 |
| 20260509063304 | 48 | 99 | 0.0 | 1.7 | 0.00 | 0.16 | 0.00 | 96 | 1010.2 |
| 20260509062806 | 48 | 118 | 0.9 | 2.6 | 0.00 | 0.16 | 0.00 | 96 | 1010.3 |
| 20260509062306 | 48 | 116 | 0.0 | 1.7 | 0.00 | 0.16 | 0.00 | 96 | 1010.3 |
| 20260509061304 | 48 | 118 | 0.0 | 0.0 | 0.00 | 0.16 | 0.00 | 96 | 1010.4 |
| 20260509060304 | 48 | 126 | 0.0 | 1.7 | 0.00 | 0.16 | 0.00 | 96 | 1010.6 |
| 20260509055805 | 48 | 112 | 0.0 | 0.9 | 0.00 | 0.16 | 0.00 | 96 | 1010.6 |
| 20260509055306 | 48 | 111 | 0.0 | 0.9 | 0.00 | 0.16 | 0.00 | 96 | 1010.8 |
| 20260509054805 | 48 | 111 | 0.0 | 0.9 | 0.00 | 0.16 | 0.00 | 96 | 1010.9 |
| 20260509054304 | 48 | 113 | 0.0 | 0.9 | 0.00 | 0.16 | 0.00 | 96 | 1011.0 |
| 20260509053304 | 48 | 115 | 0.0 | 0.9 | 0.00 | 0.16 | 0.00 | 96 | 1011.1 |
| 20260509052804 | 48 | 115 | 0.0 | 0.9 | 0.00 | 0.16 | 0.00 | 96 | 1011.2 |
| 20260509052307 | 48 | 103 | 0.0 | 0.9 | 0.00 | 0.16 | 0.00 | 97 | 1011.2 |
| 20260509051805 | 48 | 110 | 0.0 | 0.9 | 0.00 | 0.16 | 0.00 | 97 | 1011.3 |
| 20260509051307 | 48 | 110 | 0.0 | 0.9 | 0.00 | 0.16 | 0.00 | 97 | 1011.3 |
| 20260509050804 | 48 | 86 | 0.0 | 0.9 | 0.00 | 0.16 | 0.00 | 97 | 1011.3 |
| 20260509050304 | 48 | 86 | 0.0 | 1.7 | 0.00 | 0.16 | 0.00 | 96 | 1011.3 |